Regional Weather Roundup
Issued by NWS

Home | Current Version | Previous Version | Text Only | Print | Product List | Glossary On
Versions: 1 2 3 4 5 6 7 8 9 10 11 12 13 14 15 16 17 18 19 20 21 22 23 24 25 26 27 28 29 30 31 32 33 34 35 36 37 38 39 40 41 42 43 44 45 46 47 48 49 50
000
ASUS43 KDTX 220401
RWRMI
MICHIGAN HOURLY REGIONAL WEATHER ROUNDUP
NATIONAL WEATHER SERVICE DETROIT/PONTIAC MI
1100 PM EST SUN JAN 21 2018

NOTE: "FAIR" INDICATES FEW OR NO CLOUDS BELOW 12,000 FEET WITH NO
SIGNIFICANT WEATHER AND/OR OBSTRUCTION TO VISIBILITY.

MIZ047>049-052>055-059>063-066>070-074>076-081>083-220500-
SOUTHEAST LOWER MICHIGAN

CITY           SKY/WX    TMP DP  RH WIND       PRES   REMARKS
ADRIAN         FOG       37  36  96 NE3       29.99F VSB 1/2
ALMA           LGT RAIN  36  36 100 NE5       29.99F VSB 3/4 WCI  32
ANN ARBOR      FOG       38  38 100 E3        30.00S VSB 1/2
BAD AXE        CLOUDY    35  34  97 CALM      30.03S FOG
CARO           CLOUDY    37  36  96 SE3       30.01S FOG
DETROIT CITY   FOG       37  36  96 E5        30.02F VSB 1/4 WCI  33
DETROIT        FOG       38  38 100 NE3       30.01F VSB 1/4
FLINT          CLOUDY    37  37 100 E7        30.00F FOG     WCI  32
GROSSE ILE     FOG       37  37  99 CALM      30.00F VSB 1/2
HILLSDALE      SNOW      41  37  87 SE5       29.95F VSB 1/4
HOWELL         LGT RAIN  37  37 100 E5        29.98F VSB 1/2 WCI  34

CITY           SKY/WX    TMP DP  RH WIND       PRES   REMARKS
JACKSON        FOG       38  38 100 E3        29.97F VSB 3/4
LAMBERTVILLE   FOG       38  37  97 CALM      29.99F VSB 1/2
LANSING        MIX PCPN  37  37 100 CALM      29.98F VSB 1
LAPEER         CLOUDY    36  36  98 CALM      30.02S FOG
MONROE         FOG       37  35  93 E3        30.00S VSB 3/4
MT. CLEMENS    DRZL/FOG  36  35  96 NE3       30.02F VSB 1/8
PONTIAC        FOG       37  37 100 CALM      30.00S VSB 1/4
PORT HOPE        N/A     31  30  96 SE7       30.02F WCI  24
PORT HURON     FOG       36  34  93 CALM      30.03F VSB 1
TRI CITIES     CLOUDY    35  35 100 NE3       30.02R FOG
MIDLAND        CLOUDY    35  34  99 CALM      30.01R FOG
TROY           LGT RAIN  37  37  97 NE3       30.03F VSB 1/2
SAGINAW HB     CLOUDY    36  34  93 CALM      30.01F FOG
$$
MIZ043>046-050>051-056>058-064>065-071>073-077>080-220500-
SOUTHWEST LOWER MICHIGAN

CITY           SKY/WX    TMP DP  RH WIND       PRES   REMARKS
BATTLE CREEK   FOG       40  39  97 SE3       29.94F VSB 1/2
BENTON HARBOR  FOG       44  42  93 SE6       29.91F VSB 1/2
BIG RAPIDS     CLOUDY    36  34  94 E3        29.97S FOG
COLDWATER      FOG       42  42 100 S5        29.95F VSB 1/2
FREMONT        DRIZZLE   37  35  94 E8        29.94F WCI  31
HOLLAND        FOG       38  37  97 E5        29.93F VSB 1/2 WCI  34
GRAND RAPIDS   LGT RAIN  37  36  96 E8        29.94F VSB 3/4 WCI  31
IONIA          DRZL/FOG  36  36 100 E6        29.95F VSB 1/4 WCI  31
KALAMAZOO      FOG       42  41  96 VRB3      29.94F VSB<1/4
LUDINGTON      CLOUDY    37  37 100 E5        29.96S FOG     WCI  34
MARSHALL       FOG       38  38  98 E3        29.94F VSB 1/2
MOUNT PLEASANT CLOUDY    37  35  95 NE3       29.99F FOG
MUSKEGON       CLOUDY    39  36  89 E8        29.94F FOG     WCI  33
SOUTH HAVEN    FOG       41  40  96 E3        29.92S VSB 1/2
$$
MIZ016>042-220500-
NORTHERN LOWER MICHIGAN

CITY           SKY/WX    TMP DP  RH WIND       PRES   REMARKS
ALPENA         FOG       32  32 100 E6        30.02F VSB 1/2 WCI  26
BEAVER ISLAND  CLOUDY    33  33  98 NE5       30.03R WCI  29
BELLAIRE       FAIR      31  31  99 CALM      30.01S
CADILLAC       CLOUDY    34  34  99 E5        29.97S FOG     WCI  30
CHARLEVOIX     CLOUDY    35  33  93 CALM      30.04S
FRANKFORT      CLOUDY    38  34  87 E3        29.99R
GAYLORD        FAIR      32  31  96 CALM      29.99R
GRAYLING       CLOUDY    32  30  92 CALM      30.00S
HARBOR SPRINGS CLOUDY    34  32  93 NE5       30.01S WCI  30
HOUGHTON LAKE  CLOUDY    33  31  92 NE3       30.00R FOG
MANISTEE       CLOUDY    37  34  89 NE7       29.97S WCI  32
OSCODA         FOG       31  30  98 SE3       30.03S VSB 1/4
PELLSTON       CLOUDY    34  32  92 CALM      30.03R
ROGERS CITY    CLOUDY    32  32  99 E5        30.04S FOG     WCI  27
TRAVERSE CITY  CLOUDY    34  33  96 CALM      29.99F FOG
$$
MIZ007>008-015-220500-
EASTERN UPPER MICHIGAN

CITY           SKY/WX    TMP DP  RH WIND       PRES   REMARKS
KINROSS        CLOUDY    33  31  92 E8        30.05R WCI  26
MACKINAC ISLAN FOG       33  33 100 E6        30.03R VSB 1/4 WCI  27
NEWBERRY       CLOUDY    32  31  97 NE3       30.04R
S. S. MARIE    CLOUDY    34  31  88 NE3       30.05R
MUNISING         N/A     33  33 100 N6        30.06R WCI  28
$$
MIZ004>006-011>014-085-220500-
CENTRAL UPPER MICHIGAN

CITY           SKY/WX    TMP DP  RH WIND       PRES   REMARKS
ESCANABA       CLOUDY    34  31  88 N5        30.03S WCI  30
MENOMINEE      CLOUDY    33  32  96 E7        30.03R FOG     WCI  27
SAWYER-GWINN   HVY SNOW  30  29  96 NE14      30.03S VSB 1/4 WCI  20
$$
MIZ001>003-009>011-084-220500-
WESTERN UPPER MICHIGAN

CITY           SKY/WX    TMP DP  RH WIND       PRES   REMARKS
IRON MOUNTAIN  CLOUDY    33  30  88 N6        30.00F WCI  28
HOUGHTON       CLOUDY    29  25  85 NE10      30.06S FOG     WCI  20
COPPER HARBOR    N/A     29  26  89 E9G18     30.10S WCI  20
IRONWOOD       CLOUDY    30  29  96 NE6       30.03S WCI  24
$$

ABBREVIATIONS USED IN REMARKS
   TC - TEMPERATURE IN CELSIUS
  WCI - WIND CHILL INDEX
   HX - HEAT INDEX
  VSB - VISIBILITY





USA.gov is the U.S. government's official web portal to all federal, state and local government web resources and services.